Regional Weather Roundup
Issued by NWS Charleston, SC

Home | Current Version | Previous Version | Text Only | Print | Product List | Glossary On
Versions: 1 2 3 4 5 6 7 8 9 10 11 12 13 14 15 16 17 18 19 20 21 22 23 24 25 26 27 28 29 30 31 32 33 34 35 36 37 38 39 40 41 42 43 44 45 46 47 48 49 50
000
ASUS42 KCHS 261225
RWRCHS

REGIONAL WEATHER ROUNDUP
NATIONAL WEATHER SERVICE CHARLESTON SC
700 AM EST FRI DEC 26 2014

NOTE: "FAIR" INDICATES FEW OR NO CLOUDS BELOW 12,000 FEET WITH NO
SIGNIFICANT WEATHER AND/OR OBSTRUCTIONS TO VISIBILITY.

NOT ALL STATIONS ARE QUALITY CONTROLLED BY THE NATIONAL
WEATHER SERVICE. USE DATA WITH CAUTION...ESPECIALLY
DEWPOINT OBSERVATIONS.

SCZ027-030-031-034>040-042>050-261300-
...SOUTHEAST SOUTH CAROLINA...

CITY           SKY/WX    TMP DP  RH WIND       PRES   REMARKS
N CHARLESTON   PTCLDY    37  35  92 N3        30.30R
6HR MIN TEMP:  35; 6HR MAX TEMP:  40;

WATERFRONT PRK   N/A     45 N/A N/A N5          N/A
MOUNT PLEASANT FAIR      37  37 100 CALM      30.30R
PINOPOLIS      NOT AVBL
MONCKS CORNER  FAIR      37  36  93 CALM      30.31R
SUMMERVILLE    FAIR      36  36 100 CALM      30.31R
BEAUFORT MCAS  FAIR      40  37  89 N3        30.30R
6HR MIN TEMP:  37; 6HR MAX TEMP:  43;

BEAUFORT ARPT  FAIR      41  41 100 N3        30.30R
HILTON HEAD IS CLEAR     37  37 100 NW6       30.30  WCI  33
WALTERBORO     MOSUNNY   34 N/A N/A CALM      30.31S
ALLENDALE      FAIR      34  34 100 CALM      30.30R

...SOUTHERN MIDLANDS AND PEE DEE...

CITY           SKY/WX    TMP DP  RH WIND       PRES   REMARKS
GEORGETOWN     NOT AVBL
KINGSTREE      NOT AVBL
ORANGEBURG     PTCLDY    34  32  92 CALM      30.30R FOG
6HR MIN TEMP:  34; 6HR MAX TEMP:  40;

BARNWELL         N/A     32  32 100 CALM      30.32R
AIKEN          FAIR      32  32 100 CALM      30.34R
MANNING        FAIR      34 N/A N/A CALM      30.31S
COLUMBIA       FOG       33  32  96 CALM      30.31R VSB 1/4
6HR MIN TEMP:  32; 6HR MAX TEMP:  36;

SUMTER         CLEAR     34  32  93 NE3       30.30R
6HR MIN TEMP:  34; 6HR MAX TEMP:  38;

FLORENCE       CLEAR     34  33  96 CALM      30.32R
6HR MIN TEMP:  34; 6HR MAX TEMP:  40;

MYRTLE BEACH   CLEAR     39  36  87 CALM      30.32R
N MYRTLE BEACH PTCLDY    36  35  96 CALM      30.30R FOG
6HR MIN TEMP:  35; 6HR MAX TEMP:  39;


$$

GAZ063-065-086>088-099>101-113>116-118-119-134>141-150-261300-
...SOUTHEAST GEORGIA...

CITY           SKY/WX    TMP DP  RH WIND       PRES   REMARKS
SAVANNAH ARPT  CLEAR     37  35  92 CALM      30.30R
6HR MIN TEMP:  36; 6HR MAX TEMP:  43;

HUNTER AAF     CLEAR     35  35 100 NW3       30.27R
6HR MIN TEMP:  35; 6HR MAX TEMP:  40;

FORT STEWART   PTCLDY    34  33  95 CALM      30.28R
6HR MIN TEMP:  34; 6HR MAX TEMP:  38;

STATESBORO     CLEAR     32  32 100 CALM      30.30R
SYLVANIA       SUNNY     34  34 100 CALM      30.31R
CLAXTON        FAIR      32  32 100 CALM      30.30S FOG

...CSRA...CENTRAL AND FAR SOUTHEAST GEORGIA...

CITY           SKY/WX    TMP DP  RH WIND       PRES   REMARKS
THOMSON        PTCLDY    31  31 100 CALM      30.35R
AUGUSTA-BUSH   FOG       33  32  96 W3        30.32R VSB 1/4
6HR MIN TEMP:  29; 6HR MAX TEMP:  34;

AUGUSTA-DANIEL CLEAR     38  35  89 CALM      30.30R
SWAINSBORO     FAIR     N/A N/A N/A CALM      30.30S
VIDALIA        PTCLDY    36  36 100 CALM      30.30R
EASTMAN        FOG       32  32 100 CALM      30.32S VSB 1/4
HAZLEHURST     FOG       37  37 100 CALM      30.29R VSB 3/4
ALMA           CLEAR     34  33  96 CALM      30.29R FOG
6HR MIN TEMP:  34; 6HR MAX TEMP:  38;

WAYCROSS       CLEAR     38  37  96 CALM      30.28S
JESUP          FAIR      36  36 100 CALM      30.30R
BAXLEY         FAIR      37  37 100 CALM      30.30R
BRUNSWICK        N/A     36  34  93 CALM      30.30R VSB 3/4
SAINT SIMONS   CLEAR     41  38  89 NW3       30.28R
6HR MIN TEMP:  40; 6HR MAX TEMP:  43;


$$

SCZ027-028-034-036>038-045-046-048>050-GAZ119-141-261300-
...LAKE AND SUPPLEMENTAL COASTAL OBSERVATIONS...

STATION/POSITION TIME  TEMP    WIND        PRES    WAVE   SWELL
                       AIR SEA DIR/SP/G            HT/PER HT/PER/DIR
                 (UTC) (F)     (DEG/KT/KT) (MB)    (FT/S) (FT/S/D)
UPR LAKE MARION  NOT AVBL
WINYAH BAY       1200   40     320/  5     1025.0S
LAKE MURRAY      1200   37      CALM  /  1 1025.4S
ACE BASIN NERRS  NOT AVBL
FORT PULASKI     1200   43 55  300/  4/  6 1026.1R
SAPELO ISLAND    1200   40      30/  5     1025.0S

$$

ANZ835-935-AMZ111-154-330-350-352-354-370-450-454-472-261300-
...C-MAN AND BUOY OBSERVATIONS...

STATION/POSITION TIME  TEMP    WIND        PRES    WAVE   SWELL
                       AIR SEA DIR/SP/G            HT/PER HT/PER/DIR
                 (UTC) (F)     (DEG/KT/KT) (MB)    (FT/S) (FT/S/D)
BUOY 41004       1200   61 71   50/  6/  8 1024.4R   2/ 7   2/ 7
BUOY 41008       1200   56 58   40/  8/ 10 1024.9R   2/ 7   2/120/ 7
FOLLY BEACH CMAN 1200   44     320/  4/  6 1026.2R
CAPERS NEARSHORE 1100   53      30/  6/  8   N/A
FRIPP NEARSHORE  NOT AVBL


STATION/POSITION TIME  TEMP    WIND        PRES    WAVE   SWELL
                       AIR SEA DIR/SP/G            HT/PER HT/PER/DIR
                 (UTC) (F)     (DEG/KT/KT) (MB)    (FT/S) (FT/S/D)
5E ST. MARYS GA  1200      61                N/A     2/ 8
FRYING PAN BUOY  1200   59 70   70/  8/ 10 1025.4R   3/ 8   3/150/ 8
BUOY 41025       1200   55                 1025.5R   3/ 7
CAPE LOOKOUT NC  1200   49     360/  8/  9 1026.1R
BUOY 41002       1131   68 71   80/  8/ 12 1024.1R   5/ 7   5/250/ 7
BUOY 41010       1200   70 77   30/  8/ 10 1023.0R   4/ 6   3/340/ 6
ST AUGUSTINE FL  1200   49     310/  7/  7 1024.9R


$$



USA.gov is the U.S. government's official web portal to all federal, state and local government web resources and services.